Overview Statistics Trail Chart Weather Telemetry Raw packets
 

This is the latest recevied weather packets stored in our database for station/object K5SVV. If no packets are shown the sender has not sent any weather packets the latest 10 day(s).

<< 96 97 98 99 100 101 102 >>
Time Temp. Humidity Pressure Rain* Wind** Luminosity Snow
1787974338 30° C 52% 1015.4 hPa 0 mm - 0 W/m² -
1787974037 29.44° C 52% 1015.5 hPa 0 mm - 0 W/m² -
1787973732 29.44° C 51% 1015.5 hPa 0 mm - 0 W/m² -
1787973427 29.44° C 53% 1015.5 hPa 0 mm - 0 W/m² -
1787973122 30° C 50% 1015.1 hPa 0 mm - 0 W/m² -
1787972816 30° C 50% 1014.8 hPa 0 mm - 0 W/m² -
1787972515 30° C 49% 1015 hPa 0 mm - 0 W/m² -
1787972214 30° C 49% 1015.1 hPa 0 mm - 0 W/m² -
1787971909 30.56° C 49% 1014.9 hPa 0 mm - 0 W/m² -
1787971605 30.56° C 49% 1014.8 hPa 0 mm - 0 W/m² -
1787971301 30.56° C 48% 1015 hPa 0 mm - 0 W/m² -
1787970997 30.56° C 48% 1014.8 hPa 0 mm - 0 W/m² -
1787970696 31.11° C 48% 1014.8 hPa 0 mm - 0 W/m² -
1787970395 31.11° C 47% 1014.7 hPa 0 mm - 0 W/m² -
1787970094 31.11° C 46% 1014.7 hPa 0 mm - 0 W/m² -
1787969793 31.67° C 46% 1014.7 hPa 0 mm - 0 W/m² -
1787969492 31.67° C 45% 1014.5 hPa 0 mm - 0 W/m² -
1787969187 32.22° C 45% 1014.5 hPa 0 mm - 0 W/m² -
1787968882 32.22° C 44% 1014.5 hPa 0 mm - 0 W/m² -
1787968581 32.22° C 44% 1014.6 hPa 0 mm - 0 W/m² -
1787968277 32.22° C 43% 1014.4 hPa 0 mm - 0 W/m² -
1787967972 32.22° C 44% 1014.5 hPa 0 mm - 0 W/m² -
1787967668 31.67° C 44% 1014.6 hPa 0 mm - 0 W/m² -
1787967368 31.67° C 45% 1014.1 hPa 0 mm - 0 W/m² -
1787967063 31.67° C 45% 1014.4 hPa 0 mm - 0 W/m² -

* Rain latest hour (hover to see other rain measurements)
** Current wind speed in m/s (hover to see current wind gust speed)